الصفحة الرئيسية
METAR-TAF:

METAR-TAF

مطار :

إري, كولورادو, الولايات المتحدة

دائرة عرض: 40-00-37N, خط طول: 105-02-53W, ارتفاع: 1564 متر

مراقبة الطقس الحالي

تاريخ ووقت الإصدار 13 دقيقة قبل الساعة 18:54UTC
رياح هادئة
درجة الحرارة 13°درجة مئوية
الرطوبة 13%
ضغط 1019 hPa
الرؤية: 16.1 كم
سماء صافية

METAR: KEIK 171854Z AUTO 00000KT 10SM CLR 13/M15 A3009 RMK AO2 T01311150

زمن: 12:07 (19:07 UTC)


TAF: مفقودة

أرصاد الطقس والتوقعات من أكثر من 4000 مطار (تقارير الطقس للمطار METAR والتنبؤ بالطقس بالمطارTAF).

المحطات المتاحة هي النقط الصفراء والحمراء على الخريطة.

حرك المؤشر فوق النقطة لمعرفة اسم المحطة.

ثم انقر لمعرفة أرصاد وتوقعات الطقس.

لتغيير الخارطة: اضغط على الأزرار الخضراء مع رمز الصليب الأسود للتكبير. على الزر الأخضر مع شرطة للتصغير، أو على الأسهم الخضراء للخرائط المجاورة.


METAR-TAF: